| time (UTC) | temp F | wind direction | speed knots | gust knots | rain 1hr in | rain 24hr in | rain mn in | humidity % | barometer mb |
| 20260903163235 | 75 | 237 | 2.6 | 7.0 | 0.00 | 0.00 | 0.00 | 24 | 1016.7 |
| 20260903162746 | 75 | 243 | 3.5 | 7.8 | 0.00 | 0.00 | 0.00 | 24 | 1016.7 |
| 20260903162246 | 75 | 254 | 2.6 | 7.8 | 0.00 | 0.00 | 0.00 | 23 | 1016.8 |
| 20260903161746 | 75 | 265 | 1.7 | 5.2 | 0.00 | 0.00 | 0.00 | 23 | 1016.8 |
| 20260903161246 | 74 | 212 | 2.6 | 5.2 | 0.00 | 0.00 | 0.00 | 26 | 1016.6 |
| 20260903160746 | 74 | 250 | 1.7 | 5.2 | 0.00 | 0.00 | 0.00 | 25 | 1016.7 |
| 20260903160246 | 74 | 250 | 1.7 | 5.2 | 0.00 | 0.00 | 0.00 | 26 | 1016.6 |
| 20260903155745 | 73 | 242 | 0.0 | 4.3 | 0.00 | 0.00 | 0.00 | 25 | 1016.9 |
| 20260903154746 | 72 | 187 | 1.7 | 3.5 | 0.00 | 0.00 | 0.00 | 24 | 1016.7 |
| 20260903154246 | 72 | 177 | 0.9 | 3.5 | 0.00 | 0.00 | 0.00 | 22 | 1016.7 |
| 20260903153746 | 71 | 130 | 0.0 | 1.7 | 0.00 | 0.00 | 0.00 | 21 | 1016.6 |
| 20260903152734 | 70 | 77 | 0.0 | 0.0 | 0.00 | 0.00 | 0.00 | 17 | 1016.4 |
| 20260903152246 | 69 | 74 | 0.0 | 0.0 | 0.00 | 0.00 | 0.00 | 18 | 1016.3 |
| 20260903151745 | 68 | 74 | 0.0 | 0.0 | 0.00 | 0.00 | 0.00 | 19 | 1016.3 |
| 20260903151245 | 66 | 74 | 0.0 | 2.6 | 0.00 | 0.00 | 0.00 | 19 | 1016.2 |
| 20260903150745 | 65 | 74 | 0.0 | 3.5 | 0.00 | 0.00 | 0.00 | 20 | 1015.8 |
| 20260903150245 | 63 | 74 | 0.9 | 6.1 | 0.00 | 0.00 | 0.00 | 23 | 1015.7 |
| 20260903145745 | 61 | 73 | 2.6 | 6.1 | 0.00 | 0.00 | 0.00 | 25 | 1016.3 |
| 20260903145245 | 59 | 61 | 1.7 | 5.2 | 0.00 | 0.00 | 0.00 | 26 | 1016.0 |
| 20260903144745 | 58 | 83 | 1.7 | 7.0 | 0.00 | 0.00 | 0.00 | 27 | 1015.7 |
| 20260903143745 | 55 | 51 | 3.5 | 5.2 | 0.00 | 0.00 | 0.00 | 31 | 1015.6 |
| 20260903143244 | 53 | 64 | 2.6 | 5.2 | 0.00 | 0.00 | 0.00 | 31 | 1015.2 |
| 20260903142744 | 51 | 57 | 2.6 | 7.0 | 0.00 | 0.00 | 0.00 | 31 | 1014.9 |
| 20260903142245 | 50 | 53 | 3.5 | 7.0 | 0.00 | 0.00 | 0.00 | 31 | 1014.7 |
| 20260903141745 | 48 | 77 | 4.3 | 7.8 | 0.00 | 0.00 | 0.00 | 33 | 1014.3 |
| 20260903141245 | 47 | 69 | 5.2 | 7.8 | 0.00 | 0.00 | 0.00 | 33 | 1014.3 |
| 20260903140244 | 46 | 68 | 4.3 | 7.0 | 0.00 | 0.00 | 0.00 | 34 | 1013.8 |
| 20260903135744 | 46 | 41 | 4.3 | 7.0 | 0.00 | 0.00 | 0.00 | 33 | 1014.9 |
| 20260903134744 | 45 | 38 | 4.3 | 7.0 | 0.00 | 0.00 | 0.00 | 32 | 1014.6 |
| 20260903134244 | 45 | 51 | 3.5 | 7.0 | 0.00 | 0.00 | 0.00 | 33 | 1014.6 |
| 20260903133744 | 45 | 73 | 4.3 | 7.0 | 0.00 | 0.00 | 0.00 | 32 | 1014.6 |
| 20260903132744 | 45 | 40 | 5.2 | 7.8 | 0.00 | 0.00 | 0.00 | 32 | 1014.5 |
| 20260903132244 | 45 | 55 | 5.2 | 7.8 | 0.00 | 0.00 | 0.00 | 31 | 1014.6 |
| 20260903131744 | 45 | 61 | 5.2 | 7.0 | 0.00 | 0.00 | 0.00 | 32 | 1014.5 |
| 20260903131244 | 45 | 57 | 4.3 | 7.0 | 0.00 | 0.00 | 0.00 | 32 | 1014.6 |
| 20260903130243 | 45 | 38 | 5.2 | 7.8 | 0.00 | 0.00 | 0.00 | 31 | 1014.4 |
| 20260903125244 | 45 | 17 | 3.5 | 7.0 | 0.00 | 0.00 | 0.00 | 31 | 1015.1 |
| 20260903124744 | 45 | 36 | 5.2 | 7.8 | 0.00 | 0.00 | 0.00 | 32 | 1015.0 |
| 20260903124243 | 45 | 63 | 4.3 | 7.8 | 0.00 | 0.00 | 0.00 | 31 | 1014.8 |
| 20260903123744 | 45 | 59 | 5.2 | 7.8 | 0.00 | 0.00 | 0.00 | 31 | 1014.9 |
| 20260903123243 | 45 | 38 | 5.2 | 7.8 | 0.00 | 0.00 | 0.00 | 30 | 1014.9 |
| 20260903122243 | 45 | 29 | 5.2 | 7.0 | 0.00 | 0.00 | 0.00 | 30 | 1014.7 |
| 20260903121743 | 45 | 51 | 5.2 | 7.0 | 0.00 | 0.00 | 0.00 | 31 | 1014.9 |
| 20260903121243 | 46 | 43 | 3.5 | 7.0 | 0.00 | 0.00 | 0.00 | 31 | 1015.0 |
| 20260903115743 | 46 | 37 | 4.3 | 7.8 | 0.00 | 0.00 | 0.00 | 33 | 1015.4 |
| 20260903115243 | 46 | 59 | 5.2 | 7.8 | 0.00 | 0.00 | 0.00 | 33 | 1015.5 |
| 20260903114743 | 46 | 54 | 5.2 | 7.0 | 0.00 | 0.00 | 0.00 | 33 | 1015.6 |
| 20260903114242 | 46 | 49 | 4.3 | 7.0 | 0.00 | 0.00 | 0.00 | 33 | 1015.5 |
| 20260903113743 | 46 | 64 | 4.3 | 7.0 | 0.00 | 0.00 | 0.00 | 33 | 1015.5 |
| 20260903113243 | 46 | 28 | 5.2 | 7.0 | 0.00 | 0.00 | 0.00 | 32 | 1015.5 |
| 20260903112242 | 46 | 39 | 5.2 | 7.0 | 0.00 | 0.00 | 0.00 | 31 | 1015.5 |
| 20260903111742 | 46 | 41 | 5.2 | 7.8 | 0.00 | 0.00 | 0.00 | 30 | 1015.5 |
| 20260903111243 | 47 | 46 | 6.1 | 7.8 | 0.00 | 0.00 | 0.00 | 30 | 1015.5 |
| 20260903110742 | 46 | 47 | 3.5 | 7.8 | 0.00 | 0.00 | 0.00 | 29 | 1015.5 |
| 20260903105242 | 46 | 59 | 5.2 | 7.8 | 0.00 | 0.00 | 0.00 | 27 | 1016.1 |
| 20260903104742 | 46 | 60 | 5.2 | 7.8 | 0.00 | 0.00 | 0.00 | 27 | 1016.1 |
| 20260903103742 | 46 | 65 | 5.2 | 7.8 | 0.00 | 0.00 | 0.00 | 26 | 1016.1 |
| 20260903103242 | 46 | 57 | 4.3 | 7.8 | 0.00 | 0.00 | 0.00 | 25 | 1016.1 |
| 20260903102742 | 46 | 51 | 5.2 | 7.0 | 0.00 | 0.00 | 0.00 | 25 | 1016.2 |
| 20260903102242 | 45 | 69 | 5.2 | 7.0 | 0.00 | 0.00 | 0.00 | 25 | 1015.9 |
| 20260903101742 | 45 | 50 | 5.2 | 6.1 | 0.00 | 0.00 | 0.00 | 25 | 1015.9 |
| 20260903101242 | 45 | 40 | 5.2 | 7.0 | 0.00 | 0.00 | 0.00 | 25 | 1016.0 |
| 20260903100742 | 45 | 30 | 4.3 | 7.0 | 0.00 | 0.00 | 0.00 | 25 | 1016.1 |
| 20260903100242 | 45 | 57 | 3.5 | 7.0 | 0.00 | 0.00 | 0.00 | 25 | 1016.0 |
| 20260903095742 | 46 | 41 | 4.3 | 7.0 | 0.00 | 0.00 | 0.00 | 25 | 1016.5 |
| 20260903095242 | 46 | 72 | 4.3 | 7.0 | 0.00 | 0.00 | 0.00 | 24 | 1016.6 |
| 20260903094741 | 46 | 45 | 4.3 | 7.0 | 0.00 | 0.00 | 0.00 | 24 | 1016.7 |
| 20260903094242 | 46 | 39 | 4.3 | 7.8 | 0.00 | 0.00 | 0.00 | 24 | 1016.6 |
| 20260903093741 | 46 | 61 | 3.5 | 7.8 | 0.00 | 0.00 | 0.00 | 24 | 1016.7 |
| 20260903093242 | 46 | 48 | 4.3 | 7.0 | 0.00 | 0.00 | 0.00 | 24 | 1016.8 |
| 20260903092741 | 46 | 38 | 3.5 | 7.8 | 0.00 | 0.00 | 0.00 | 25 | 1016.8 |
| 20260903092241 | 46 | 32 | 5.2 | 7.8 | 0.00 | 0.00 | 0.00 | 25 | 1016.9 |
| 20260903091241 | 46 | 59 | 4.3 | 7.0 | 0.00 | 0.00 | 0.00 | 25 | 1017.0 |
| 20260903090741 | 46 | 30 | 5.2 | 6.1 | 0.00 | 0.00 | 0.00 | 25 | 1017.1 |
| 20260903085741 | 47 | 63 | 4.3 | 7.0 | 0.00 | 0.00 | 0.00 | 26 | 1017.3 |
| 20260903085241 | 47 | 51 | 5.2 | 7.0 | 0.00 | 0.00 | 0.00 | 26 | 1017.3 |
| 20260903084741 | 47 | 80 | 2.6 | 7.0 | 0.00 | 0.00 | 0.00 | 26 | 1017.3 |
| 20260903084240 | 48 | 67 | 4.3 | 7.8 | 0.00 | 0.00 | 0.00 | 27 | 1017.3 |
| 20260903083741 | 48 | 76 | 4.3 | 7.8 | 0.00 | 0.00 | 0.00 | 27 | 1017.4 |
| 20260903083241 | 48 | 75 | 4.3 | 7.0 | 0.00 | 0.00 | 0.00 | 28 | 1017.5 |
| 20260903081740 | 47 | 76 | 4.3 | 7.8 | 0.00 | 0.00 | 0.00 | 30 | 1017.7 |
| 20260903080240 | 48 | 49 | 3.5 | 7.8 | 0.00 | 0.00 | 0.00 | 32 | 1017.7 |
| 20260903075240 | 48 | 92 | 3.5 | 8.7 | 0.00 | 0.00 | 0.00 | 31 | 1017.8 |
| 20260903074740 | 48 | 53 | 4.3 | 8.7 | 0.00 | 0.00 | 0.00 | 30 | 1017.6 |
| 20260903074240 | 48 | 45 | 5.2 | 7.8 | 0.00 | 0.00 | 0.00 | 31 | 1017.8 |
| 20260903073740 | 48 | 53 | 6.1 | 7.8 | 0.00 | 0.00 | 0.00 | 32 | 1017.8 |
| 20260903073240 | 48 | 65 | 5.2 | 7.8 | 0.00 | 0.00 | 0.00 | 31 | 1017.8 |
| 20260903072739 | 48 | 65 | 5.2 | 7.8 | 0.00 | 0.00 | 0.00 | 32 | 1017.8 |
| 20260903071739 | 48 | 71 | 7.0 | 7.0 | 0.00 | 0.00 | 0.00 | 32 | 1017.8 |
| 20260903071239 | 48 | 53 | 4.3 | 7.0 | 0.00 | 0.00 | 0.00 | 33 | 1017.8 |
| 20260903070739 | 48 | 80 | 4.3 | 7.0 | 0.00 | 0.00 | 0.00 | 33 | 1017.7 |
| 20260903070239 | 48 | 69 | 1.7 | 7.0 | 0.00 | 0.00 | 0.00 | 33 | 1017.7 |
| 20260903065740 | 48 | 62 | 2.6 | 7.0 | 0.00 | 0.00 | 0.00 | 33 | 1017.5 |
| 20260903065239 | 48 | 90 | 6.1 | 7.0 | 0.00 | 0.00 | 0.00 | 34 | 1017.4 |
| 20260903064739 | 48 | 57 | 3.5 | 7.0 | 0.00 | 0.00 | 0.00 | 35 | 1017.4 |
| 20260903063239 | 49 | 54 | 3.5 | 6.1 | 0.00 | 0.00 | 0.00 | 35 | 1017.5 |
| 20260903062739 | 49 | 46 | 4.3 | 6.1 | 0.00 | 0.00 | 0.00 | 34 | 1017.4 |
| 20260903062239 | 49 | 77 | 6.1 | 7.0 | 0.00 | 0.00 | 0.00 | 34 | 1017.4 |
| 20260903060240 | 49 | 57 | 2.6 | 7.0 | 0.00 | 0.00 | 0.00 | 32 | 1017.3 |
| 20260903055739 | 50 | 48 | 2.6 | 6.1 | 0.00 | 0.00 | 0.00 | 33 | 1017.5 |
| 20260903055239 | 50 | 42 | 3.5 | 5.2 | 0.00 | 0.00 | 0.00 | 33 | 1017.6 |
| 20260903054739 | 50 | 59 | 3.5 | 7.0 | 0.00 | 0.00 | 0.00 | 33 | 1017.7 |
| 20260903054238 | 50 | 65 | 3.5 | 7.0 | 0.00 | 0.00 | 0.00 | 34 | 1017.8 |
| 20260903053738 | 50 | 51 | 3.5 | 6.1 | 0.00 | 0.00 | 0.00 | 34 | 1017.8 |
| 20260903053238 | 50 | 74 | 2.6 | 6.1 | 0.00 | 0.00 | 0.00 | 35 | 1017.9 |
| 20260903052238 | 51 | 78 | 3.5 | 7.0 | 0.00 | 0.00 | 0.00 | 35 | 1017.8 |
| 20260903051727 | 51 | 58 | 1.7 | 7.8 | 0.00 | 0.00 | 0.00 | 35 | 1017.9 |
| 20260903051238 | 51 | 69 | 3.5 | 7.8 | 0.00 | 0.00 | 0.00 | 36 | 1017.8 |
| 20260903050238 | 52 | 57 | 3.5 | 7.0 | 0.00 | 0.00 | 0.00 | 38 | 1018.0 |
| 20260903045738 | 52 | 76 | 6.1 | 7.0 | 0.00 | 0.00 | 0.00 | 39 | 1017.5 |
| 20260903045238 | 52 | 69 | 2.6 | 7.0 | 0.00 | 0.00 | 0.00 | 40 | 1017.7 |
| 20260903044737 | 53 | 63 | 3.5 | 7.0 | 0.00 | 0.00 | 0.00 | 41 | 1017.9 |
| 20260903044238 | 53 | 59 | 3.5 | 6.1 | 0.00 | 0.00 | 0.00 | 43 | 1017.8 |
| 20260903043737 | 53 | 65 | 4.3 | 6.1 | 0.00 | 0.00 | 0.00 | 45 | 1017.8 |
| 20260903043237 | 53 | 65 | 3.5 | 6.1 | 0.00 | 0.00 | 0.00 | 45 | 1017.8 |
| 20260903042737 | 53 | 36 | 3.5 | 6.1 | 0.00 | 0.00 | 0.00 | 48 | 1017.8 |
| 20260903042237 | 53 | 75 | 3.5 | 5.2 | 0.00 | 0.00 | 0.00 | 47 | 1017.7 |
| 20260903041738 | 53 | 53 | 3.5 | 5.2 | 0.00 | 0.00 | 0.00 | 49 | 1017.6 |
| 20260903040737 | 54 | 53 | 1.7 | 6.1 | 0.00 | 0.00 | 0.00 | 48 | 1017.6 |
| 20260903040237 | 54 | 71 | 3.5 | 6.1 | 0.00 | 0.00 | 0.00 | 50 | 1017.5 |
| 20260903035737 | 54 | 83 | 2.6 | 6.1 | 0.00 | 0.00 | 0.00 | 51 | 1017.2 |
| 20260903035237 | 55 | 77 | 4.3 | 7.0 | 0.00 | 0.00 | 0.00 | 53 | 1017.4 |
| 20260903034237 | 55 | 65 | 3.5 | 6.1 | 0.00 | 0.00 | 0.00 | 57 | 1017.4 |
| 20260903033737 | 56 | 44 | 3.5 | 5.2 | 0.00 | 0.00 | 0.00 | 55 | 1017.4 |
| 20260903033237 | 56 | 40 | 3.5 | 5.2 | 0.00 | 0.00 | 0.00 | 59 | 1017.4 |
| 20260903032237 | 57 | 60 | 5.2 | 5.2 | 0.00 | 0.00 | 0.00 | 59 | 1017.6 |
| 20260903031737 | 58 | 61 | 2.6 | 4.3 | 0.00 | 0.00 | 0.00 | 58 | 1017.6 |
| 20260903031237 | 58 | 38 | 2.6 | 4.3 | 0.00 | 0.00 | 0.00 | 58 | 1017.6 |
| 20260903030737 | 59 | 59 | 2.6 | 4.3 | 0.00 | 0.00 | 0.00 | 58 | 1017.6 |
| 20260903030236 | 59 | 53 | 2.6 | 4.3 | 0.00 | 0.00 | 0.00 | 59 | 1017.5 |
| 20260903025737 | 60 | 47 | 3.5 | 3.5 | 0.00 | 0.00 | 0.00 | 59 | 1016.3 |
| 20260903025236 | 61 | 51 | 0.9 | 4.3 | 0.00 | 0.00 | 0.00 | 60 | 1016.4 |
| 20260903024737 | 61 | 74 | 3.5 | 4.3 | 0.00 | 0.00 | 0.00 | 60 | 1016.4 |
| 20260903024236 | 62 | 54 | 0.9 | 3.5 | 0.00 | 0.00 | 0.00 | 60 | 1016.6 |
| 20260903023737 | 63 | 317 | 1.7 | 2.6 | 0.00 | 0.00 | 0.00 | 59 | 1016.6 |
| 20260903023236 | 63 | 249 | 0.9 | 1.7 | 0.00 | 0.00 | 0.00 | 57 | 1016.6 |
| 20260903022736 | 64 | 249 | 0.0 | 0.9 | 0.00 | 0.00 | 0.00 | 56 | 1016.7 |
| 20260903022236 | 65 | 249 | 0.0 | 0.0 | 0.00 | 0.00 | 0.00 | 55 | 1016.7 |
| 20260903021736 | 66 | 249 | 0.0 | 0.0 | 0.00 | 0.00 | 0.00 | 55 | 1017.0 |
| 20260903020736 | 67 | 249 | 0.0 | 2.6 | 0.00 | 0.00 | 0.00 | 54 | 1017.0 |
| 20260903020236 | 68 | 249 | 0.0 | 4.3 | 0.00 | 0.00 | 0.00 | 54 | 1017.2 |
| 20260903015236 | 69 | 248 | 1.7 | 6.1 | 0.00 | 0.00 | 0.00 | 54 | 1015.6 |
| 20260903014736 | 69 | 246 | 2.6 | 6.1 | 0.00 | 0.00 | 0.00 | 53 | 1015.6 |
| 20260903014235 | 70 | 234 | 4.3 | 6.1 | 0.00 | 0.00 | 0.00 | 52 | 1015.8 |
| 20260903013736 | 70 | 240 | 0.9 | 4.3 | 0.00 | 0.00 | 0.00 | 51 | 1015.7 |
| 20260903012735 | 71 | 234 | 0.0 | 7.0 | 0.00 | 0.00 | 0.00 | 48 | 1015.9 |
| 20260903012235 | 72 | 239 | 5.2 | 7.0 | 0.00 | 0.00 | 0.00 | 48 | 1016.1 |
| 20260903011236 | 73 | 226 | 0.9 | 7.0 | 0.00 | 0.00 | 0.00 | 46 | 1016.2 |
| 20260903010735 | 73 | 245 | 6.1 | 8.7 | 0.00 | 0.00 | 0.00 | 45 | 1016.1 |
| 20260903005235 | 74 | 223 | 0.9 | 7.8 | 0.00 | 0.00 | 0.00 | 44 | 1016.3 |
| 20260903004235 | 75 | 236 | 1.7 | 6.1 | 0.00 | 0.00 | 0.00 | 42 | 1016.2 |
| 20260903003235 | 76 | 180 | 3.5 | 7.0 | 0.00 | 0.00 | 0.00 | 41 | 1016.5 |
| 20260903002735 | 76 | 249 | 0.9 | 8.7 | 0.00 | 0.00 | 0.00 | 41 | 1016.5 |
| 20260903001735 | 77 | 232 | 4.3 | 9.6 | 0.00 | 0.00 | 0.00 | 39 | 1016.4 |
| 20260903001235 | 77 | 219 | 7.8 | 9.6 | 0.00 | 0.00 | 0.00 | 38 | 1016.4 |
| 20260903000234 | 78 | 250 | 7.0 | 7.0 | 0.00 | 0.00 | 0.00 | 37 | 1016.6 |
| 20260902235735 | 79 | 248 | 4.3 | 8.7 | 0.00 | 0.00 | 0.00 | 37 | 1016.6 |
| 20260902235235 | 79 | 224 | 1.7 | 10.4 | 0.00 | 0.00 | 0.00 | 36 | 1016.7 |
| 20260902234725 | 80 | 218 | 4.3 | 10.4 | 0.00 | 0.00 | 0.00 | 35 | 1016.9 |
| 20260902234235 | 81 | 229 | 4.3 | 9.6 | 0.00 | 0.00 | 0.00 | 34 | 1016.8 |
| 20260902233734 | 81 | 257 | 1.7 | 10.4 | 0.00 | 0.00 | 0.00 | 33 | 1016.9 |
| 20260902233235 | 81 | 234 | 7.8 | 10.4 | 0.00 | 0.00 | 0.00 | 32 | 1016.8 |
| 20260902232234 | 82 | 215 | 7.8 | 11.3 | 0.00 | 0.00 | 0.00 | 31 | 1017.0 |
| 20260902231734 | 82 | 201 | 9.6 | 11.3 | 0.00 | 0.00 | 0.00 | 32 | 1017.1 |
| 20260902231234 | 82 | 221 | 6.1 | 9.6 | 0.00 | 0.00 | 0.00 | 30 | 1017.2 |
| 20260902230734 | 82 | 221 | 6.1 | 11.3 | 0.00 | 0.00 | 0.00 | 30 | 1017.3 |
| 20260902225734 | 82 | 246 | 3.5 | 12.2 | 0.00 | 0.00 | 0.00 | 33 | 1017.5 |
| 20260902225233 | 82 | 230 | 3.5 | 10.4 | 0.00 | 0.00 | 0.00 | 32 | 1017.4 |
| 20260902224735 | 82 | 240 | 8.7 | 12.2 | 0.00 | 0.00 | 0.00 | 32 | 1017.4 |
| 20260902224234 | 82 | 189 | 1.7 | 12.2 | 0.00 | 0.00 | 0.00 | 32 | 1017.5 |
| 20260902223233 | 83 | 248 | 7.0 | 11.3 | 0.00 | 0.00 | 0.00 | 31 | 1017.7 |
| 20260902222733 | 84 | 242 | 7.0 | 13.0 | 0.00 | 0.00 | 0.00 | 29 | 1017.8 |
| 20260902222234 | 84 | 240 | 5.2 | 13.0 | 0.00 | 0.00 | 0.00 | 28 | 1017.7 |
| 20260902221733 | 84 | 228 | 4.3 | 12.2 | 0.00 | 0.00 | 0.00 | 27 | 1017.5 |
| 20260902215722 | 85 | 314 | 0.9 | 12.2 | 0.00 | 0.00 | 0.00 | 27 | 1018.0 |
| 20260902215234 | 84 | 240 | 1.7 | 12.2 | 0.00 | 0.00 | 0.00 | 26 | 1017.7 |
| 20260902213733 | 84 | 219 | 6.1 | 11.3 | 0.00 | 0.00 | 0.00 | 24 | 1017.9 |
| 20260902213233 | 85 | 253 | 8.7 | 10.4 | 0.00 | 0.00 | 0.00 | 22 | 1018.1 |
| 20260902212733 | 86 | 240 | 8.7 | 12.2 | 0.00 | 0.00 | 0.00 | 22 | 1018.2 |
| 20260902212233 | 86 | 238 | 3.5 | 12.2 | 0.00 | 0.00 | 0.00 | 21 | 1018.1 |
| 20260902211733 | 86 | 232 | 7.0 | 12.2 | 0.00 | 0.00 | 0.00 | 20 | 1018.0 |
| 20260902210733 | 85 | 252 | 10.4 | 13.9 | 0.00 | 0.00 | 0.00 | 19 | 1018.1 |
| 20260902210232 | 85 | 190 | 1.7 | 13.9 | 0.00 | 0.00 | 0.00 | 18 | 1018.2 |
| 20260902205732 | 85 | 202 | 3.5 | 13.9 | 0.00 | 0.00 | 0.00 | 17 | 1018.2 |
| 20260902205232 | 85 | 227 | 7.8 | 13.9 | 0.00 | 0.00 | 0.00 | 18 | 1018.2 |
| 20260902204733 | 84 | 247 | 7.8 | 16.5 | 0.00 | 0.00 | 0.00 | 21 | 1018.3 |
| 20260902204233 | 84 | 213 | 2.6 | 16.5 | 0.00 | 0.00 | 0.00 | 20 | 1018.5 |
| 20260902203732 | 85 | 273 | 16.5 | 16.5 | 0.00 | 0.00 | 0.00 | 22 | 1018.5 |
| 20260902203232 | 85 | 239 | 7.8 | 11.3 | 0.00 | 0.00 | 0.00 | 21 | 1018.5 |
| 20260902202232 | 84 | 225 | 7.0 | 14.8 | 0.00 | 0.00 | 0.00 | 21 | 1018.6 |
| 20260902201732 | 84 | 205 | 4.3 | 13.9 | 0.00 | 0.00 | 0.00 | 20 | 1018.6 |
| 20260902201227 | 84 | 240 | 7.8 | 13.9 | 0.00 | 0.00 | 0.00 | 20 | 1018.7 |
| 20260902200732 | 84 | 235 | 5.2 | 10.4 | 0.00 | 0.00 | 0.00 | 21 | 1018.7 |
| 20260902200232 | 84 | 250 | 3.5 | 11.3 | 0.00 | 0.00 | 0.00 | 21 | 1018.7 |
| 20260902195732 | 84 | 225 | 6.1 | 11.3 | 0.00 | 0.00 | 0.00 | 22 | 1018.6 |
| 20260902195232 | 84 | 277 | 0.9 | 11.3 | 0.00 | 0.00 | 0.00 | 22 | 1018.8 |
| 20260902194731 | 85 | 240 | 2.6 | 11.3 | 0.00 | 0.00 | 0.00 | 22 | 1019.1 |
| 20260902193231 | 85 | 229 | 2.6 | 11.3 | 0.00 | 0.00 | 0.00 | 18 | 1019.0 |
| 20260902192731 | 85 | 254 | 6.1 | 10.4 | 0.00 | 0.00 | 0.00 | 18 | 1019.0 |
| 20260902192232 | 84 | 198 | 3.5 | 9.6 | 0.00 | 0.00 | 0.00 | 16 | 1019.0 |
| 20260902191731 | 83 | 217 | 6.1 | 9.6 | 0.00 | 0.00 | 0.00 | 16 | 1018.9 |
| 20260902191231 | 82 | 224 | 3.5 | 9.6 | 0.00 | 0.00 | 0.00 | 18 | 1018.9 |
| 20260902190731 | 82 | 222 | 3.5 | 12.2 | 0.00 | 0.00 | 0.00 | 18 | 1019.0 |
| 20260902190231 | 82 | 228 | 3.5 | 12.2 | 0.00 | 0.00 | 0.00 | 18 | 1019.1 |
| 20260902185731 | 81 | 244 | 1.7 | 12.2 | 0.00 | 0.00 | 0.00 | 19 | 1018.9 |
| 20260902185232 | 81 | 242 | 4.3 | 10.4 | 0.00 | 0.00 | 0.00 | 19 | 1019.0 |
| 20260902184731 | 81 | 247 | 4.3 | 10.4 | 0.00 | 0.00 | 0.00 | 16 | 1019.0 |
| 20260902183731 | 83 | 234 | 4.3 | 12.2 | 0.00 | 0.00 | 0.00 | 16 | 1019.3 |
| 20260902183231 | 83 | 207 | 6.1 | 12.2 | 0.00 | 0.00 | 0.00 | 16 | 1019.4 |
| 20260902182719 | 83 | 212 | 4.3 | 13.9 | 0.00 | 0.00 | 0.00 | 15 | 1019.3 |
| 20260902182231 | 82 | 242 | 5.2 | 13.9 | 0.00 | 0.00 | 0.00 | 15 | 1019.2 |
| 20260902181731 | 82 | 218 | 6.1 | 16.5 | 0.00 | 0.00 | 0.00 | 15 | 1019.2 |
| 20260902181230 | 81 | 189 | 7.8 | 16.5 | 0.00 | 0.00 | 0.00 | 15 | 1019.1 |
| 20260902180231 | 82 | 242 | 4.3 | 10.4 | 0.00 | 0.00 | 0.00 | 14 | 1019.1 |
| 20260902175731 | 81 | 241 | 5.2 | 12.2 | 0.00 | 0.00 | 0.00 | 14 | 1019.1 |
| 20260902175231 | 81 | 232 | 8.7 | 12.2 | 0.00 | 0.00 | 0.00 | 15 | 1019.1 |
| 20260902172730 | 80 | 238 | 5.2 | 9.6 | 0.00 | 0.00 | 0.00 | 15 | 1019.0 |
| 20260902172230 | 80 | 217 | 1.7 | 7.8 | 0.00 | 0.00 | 0.00 | 15 | 1019.0 |
| 20260902171730 | 80 | 230 | 3.5 | 9.6 | 0.00 | 0.00 | 0.00 | 15 | 1018.9 |
| 20260902171230 | 80 | 239 | 7.0 | 9.6 | 0.00 | 0.00 | 0.00 | 14 | 1018.9 |
| 20260902170729 | 80 | 234 | 0.9 | 9.6 | 0.00 | 0.00 | 0.00 | 15 | 1018.8 |
| 20260902170230 | 79 | 259 | 1.7 | 10.4 | 0.00 | 0.00 | 0.00 | 15 | 1018.8 |
| 20260902165730 | 78 | 233 | 2.6 | 10.4 | 0.00 | 0.00 | 0.00 | 16 | 1018.7 |
| 20260902164730 | 78 | 247 | 3.5 | 7.8 | 0.00 | 0.00 | 0.00 | 16 | 1018.7 |
| 20260902164230 | 78 | 238 | 1.7 | 8.7 | 0.00 | 0.00 | 0.00 | 16 | 1018.6 |